Location: Melizzano
(41.1500°N, 14.5000°E)
Time: 23:13:07
(UTC+00:00)

CZ-2C R/B - Pass Details

Date: 11 May 2021
Orbit: 640 x 703 km, 98.3° (Epoch: 24 June)

Event Time Altitude Azimuth Distance (km) Brightness Sun altitude
Rises 19:32:29 0° 18° (NNE) 2,974 7.4 -14.0°
Reaches altitude 10° 19:34:44 10° 23° (NNE) 2,066 6.5 -14.3°
Maximum altitude 19:39:09 53° 101° (E) 815 3.8 -14.9°
Enters shadow 19:42:30 17° 173° (S) 1,667 5.3 -15.4°
